Hourly Data Report for December 30, 2006

TORONTO CITY
ONTARIO

43°40'00.000" N
79°24'00.000" W
112.50 m
6158355
71508
XTO

Download Data

Hourly Data (December 2006)
Hourly Data Report for December 30, 2006
TIME
LST
Temp Definition
°C
Dew Point Definition
°C
Rel Hum Definition
%
Precip. Amount Definition
mm

Wind Dir Definition
10's deg

Wind Spd Definition
km/h
Visibility Definition
km
Stn Press Definition
kPa
Hmdx Definition


Wind Chill Definition


Weather Definition


00:00 -0.8 -3.0 85   LegendMM LegendMM   102.01     LegendNANA
01:00 -1.6 -5.3 76   LegendMM LegendMM   101.91     LegendNANA
02:00 -1.8 -5.3 77   LegendMM LegendMM   101.85     LegendNANA
03:00 -1.4 -4.3 81   LegendMM LegendMM   101.82     LegendNANA
04:00 -1.5 -4.7 79   LegendMM LegendMM   101.71     LegendNANA
05:00 -1.5 -4.7 79   LegendMM LegendMM   101.64     LegendNANA
06:00 -1.3 -4.5 79   LegendMM LegendMM   101.66     LegendNANA
07:00 -1.2 -4.4 79   LegendMM LegendMM   101.66     LegendNANA
08:00 -0.9 -3.8 81   LegendMM LegendMM   101.70     LegendNANA
09:00 -1.1 -2.9 88   LegendMM LegendMM   101.77     LegendNANA
10:00 -0.8 -1.7 94   LegendMM LegendMM   101.77     LegendNANA
11:00 0.0 -1.4 90   LegendMM LegendMM   101.78     LegendNANA
12:00 1.0 -1.2 85   LegendMM LegendMM   101.71     LegendNANA
13:00 2.3 -0.9 79   LegendMM LegendMM   101.69     LegendNANA
14:00 1.9 -1.5 78   LegendMM LegendMM   101.69     LegendNANA
15:00 2.0 -1.1 80   LegendMM LegendMM   101.75     LegendNANA
16:00 1.9 -1.5 78   LegendMM LegendMM   101.84     LegendNANA
17:00 1.6 -1.7 79   LegendMM LegendMM   101.85     LegendNANA
18:00 1.0 -1.7 82   LegendMM LegendMM   101.91     LegendNANA
19:00 0.8 -1.7 83   LegendMM LegendMM   101.93     LegendNANA
20:00 0.6 -1.8 84   LegendMM LegendMM   101.93     LegendNANA
21:00 -0.2 -2.4 85   LegendMM LegendMM   101.92     LegendNANA
22:00 -0.3 -2.2 87   LegendMM LegendMM   101.95     LegendNANA
23:00 -0.7 -2.2 90   LegendMM LegendMM   101.93     LegendNANA

Notes on Data Quality.

Legend

  • E = Estimated
  • M = Missing
  • NA = Not Available*
  • [empty] = Indicates an unobserved value
Date modified: